Location: La Pernelle
(49.6188°N, 1.2999°W)
Time: 13:38:32
(UTC+00:00)

Cosmos 2100 Rocket - Pass Details

Date: 12 June 2021
Orbit: 955 x 1001 km, 82.9° (Epoch: 04 August)

Event Time Altitude Azimuth Distance (km) Brightness Sun altitude
Rises 21:39:44 0° 351° (N) 3,740 8.4 -10.3°
Reaches altitude 10° 21:42:18 10° 353° (N) 2,786 7.5 -10.6°
Maximum altitude 21:48:42 73° 79° (ENE) 1,045 4.1 -11.1°
Enters shadow 21:54:15 14° 163° (SSE) 2,467 5.5 -11.6°
